GW6405 Weather Reports


Display with metric or nautical units.
time (UTC)temp
F
wind
direction
speed
MPH
gust
MPH
rain 1hr
in
rain 24hr
in
rain mn
in
humidity
%
barometer
mb
20260906120048 71 70 0.0 0.0 0.00 0.00 0.00 99 1015.1
20260906115548 71 70 0.0 0.0 0.00 0.00 0.00 99 1015.1
20260906115043 71 70 0.0 0.0 0.00 0.00 0.00 99 1015.0
20260906114537 71 69 0.0 0.0 0.00 0.00 0.00 99 1015.0
20260906114033 71 67 0.0 0.0 0.00 0.00 0.00 99 1015.0
20260906113532 71 60 0.0 0.0 0.00 0.00 0.00 99 1015.3
20260906113027 71 56 0.0 0.0 0.00 0.00 0.00 99 1015.0
20260906112522 71 58 0.0 0.0 0.00 0.00 0.00 99 1015.0
20260906112019 71 72 0.0 0.0 0.00 0.00 0.00 99 1015.0
20260906111518 71 100 0.0 0.0 0.00 0.00 0.00 99 1015.0
20260906111014 71 91 0.0 0.0 0.00 0.00 0.00 99 1014.9
20260906110508 71 84 0.0 0.0 0.00 0.00 0.00 99 1014.9
20260906110002 71 63 0.0 0.0 0.00 0.00 0.00 99 1014.7
20260906105458 71 108 0.0 0.0 0.00 0.00 0.00 99 1014.8
20260906104953 71 80 0.0 0.0 0.00 0.00 0.00 99 1014.9
20260906104452 71 100 0.0 0.0 0.00 0.00 0.00 99 1014.7
20260906103951 71 106 0.0 0.0 0.00 0.00 0.00 99 1014.9
20260906103449 71 31 0.0 0.0 0.00 0.00 0.00 99 1014.9
20260906102944 71 32 0.0 0.0 0.00 0.00 0.00 99 1014.8
20260906102444 71 33 0.0 0.0 0.00 0.00 0.00 99 1014.9
20260906101939 71 34 0.0 0.0 0.00 0.00 0.00 99 1015.0
20260906101435 71 35 0.0 0.0 0.00 0.00 0.00 99 1014.8
20260906100930 71 42 0.0 0.0 0.00 0.00 0.00 99 1014.6
20260906100429 71 47 0.0 0.0 0.00 0.00 0.00 99 1015.0
20260906095924 71 43 0.0 0.0 0.00 0.00 0.00 99 1014.8
20260906095420 71 57 0.0 0.0 0.00 0.00 0.00 99 1014.6
20260906094920 71 41 0.0 0.0 0.00 0.00 0.00 99 1014.7
20260906094414 71 77 0.0 0.0 0.00 0.00 0.00 99 1014.6
20260906093910 71 73 0.0 0.0 0.00 0.00 0.00 99 1014.6
20260906093407 72 52 0.0 0.0 0.00 0.00 0.00 99 1014.5
20260906092907 72 52 0.0 0.0 0.00 0.00 0.00 99 1014.7
20260906092406 72 52 0.0 0.0 0.00 0.00 0.00 99 1014.6
20260906091902 72 49 0.0 0.0 0.00 0.00 0.00 99 1014.4
20260906091358 72 84 0.0 0.0 0.00 0.00 0.00 99 1014.6
20260906090854 72 104 0.0 0.0 0.00 0.00 0.00 99 1014.7
20260906090353 72 107 0.0 0.0 0.00 0.00 0.00 99 1014.9
20260906085848 72 117 0.0 0.0 0.00 0.00 0.00 99 1014.5
20260906085347 72 54 0.0 0.0 0.00 0.00 0.00 99 1014.7
20260906084842 72 53 0.0 0.0 0.00 0.00 0.00 99 1014.6
20260906084342 72 67 0.0 0.0 0.00 0.00 0.00 99 1014.8
20260906083836 72 67 0.0 0.0 0.00 0.00 0.00 99 1014.4
20260906083333 72 55 0.0 0.0 0.00 0.00 0.00 99 1014.3
20260906082832 72 65 0.0 0.0 0.00 0.00 0.00 99 1014.2
20260906082327 72 65 0.0 0.0 0.00 0.00 0.00 99 1014.3
20260906081823 72 66 0.0 0.0 0.00 0.00 0.00 99 1014.4
20260906081319 72 53 0.0 0.0 0.00 0.00 0.00 99 1014.1
20260906080814 72 35 0.0 0.0 0.00 0.00 0.00 99 1014.4
20260906080311 72 56 0.0 0.0 0.00 0.00 0.00 99 1014.6
20260906075810 72 63 0.0 0.0 0.00 0.00 0.00 99 1014.5
20260906075309 72 63 0.0 0.0 0.00 0.00 0.00 99 1014.3
20260906074805 72 53 0.0 0.0 0.00 0.00 0.00 99 1014.4
20260906074304 72 58 0.0 0.0 0.00 0.00 0.00 99 1014.6
20260906073804 72 57 0.0 0.0 0.00 0.00 0.00 99 1014.4
20260906073259 72 56 0.0 0.0 0.00 0.00 0.00 99 1014.4
20260906072755 72 62 0.0 0.0 0.00 0.00 0.00 99 1014.8
20260906072250 72 44 0.0 0.0 0.00 0.00 0.00 99 1014.7
20260906071747 72 183 0.0 0.0 0.00 0.00 0.00 99 1014.6
20260906071246 72 69 0.0 0.0 0.00 0.00 0.00 99 1014.7
20260906070743 72 47 0.0 0.0 0.00 0.00 0.00 99 1014.5
20260906070238 72 64 0.0 0.0 0.00 0.00 0.00 99 1014.7
20260906065737 72 42 0.0 0.0 0.00 0.00 0.00 99 1014.6
20260906065233 72 47 0.0 0.0 0.00 0.00 0.00 99 1014.7
20260906064728 72 80 0.0 0.0 0.00 0.00 0.00 99 1014.5
20260906064224 72 80 0.0 0.0 0.00 0.00 0.00 99 1014.5
20260906063719 72 58 0.0 0.0 0.00 0.00 0.00 99 1014.6
20260906063215 72 63 0.0 0.0 0.00 0.00 0.00 99 1014.8
20260906062710 72 75 0.0 0.0 0.00 0.00 0.00 99 1014.8
20260906062209 72 50 0.0 0.0 0.00 0.00 0.00 99 1014.7
20260906061705 72 91 0.0 0.0 0.00 0.00 0.00 99 1014.7
20260906061200 72 99 0.0 0.0 0.00 0.00 0.00 99 1014.7
20260906060656 72 29 0.0 0.0 0.00 0.00 0.00 99 1014.8
20260906060153 72 92 0.0 0.0 0.00 0.00 0.00 99 1014.8
20260906055649 72 92 0.0 0.0 0.00 0.00 0.00 99 1014.9
20260906055144 72 92 0.0 0.0 0.00 0.00 0.00 99 1015.0
20260906054639 72 90 0.0 0.0 0.00 0.00 0.00 99 1014.8
20260906054135 72 124 0.0 0.0 0.00 0.00 0.00 99 1014.8
20260906053632 72 102 0.0 0.0 0.00 0.00 0.00 99 1014.6
20260906053131 72 101 0.0 0.0 0.00 0.00 0.00 99 1014.9
20260906052627 72 102 0.0 0.0 0.00 0.00 0.00 99 1014.8
20260906052123 72 101 0.0 0.0 0.00 0.00 0.00 99 1014.9
20260906051619 72 96 0.0 0.0 0.00 0.00 0.00 99 1015.1
20260906051114 72 51 0.0 0.0 0.00 0.00 0.00 99 1014.7
20260906050610 72 97 0.0 0.0 0.00 0.00 0.00 99 1014.6
20260906050105 72 97 0.0 0.0 0.00 0.00 0.00 99 1014.9
20260906045603 72 97 0.0 0.0 0.00 0.00 0.00 99 1014.9
20260906045059 72 98 0.0 0.0 0.00 0.00 0.00 99 1015.0
20260906044555 72 46 0.0 0.0 0.00 0.00 0.00 99 1015.0
20260906044054 72 61 0.0 0.0 0.00 0.00 0.00 99 1015.0
20260906043550 72 61 0.0 0.0 0.00 0.00 0.00 99 1014.8
20260906043047 72 62 0.0 0.0 0.00 0.00 0.00 99 1014.8
20260906042545 72 53 0.0 0.0 0.00 0.00 0.00 99 1014.9
20260906042040 72 56 0.0 0.0 0.00 0.00 0.00 99 1014.9
20260906041536 72 44 0.0 0.0 0.00 0.00 0.00 99 1015.0
20260906041031 72 120 0.0 0.0 0.00 0.00 0.00 99 1015.0
20260906040526 72 121 0.0 0.0 0.00 0.00 0.00 99 1014.8
20260906040022 72 176 0.0 0.0 0.00 0.18 0.18 99 1014.8
20260906035516 72 82 0.0 0.0 0.00 0.18 0.18 99 1014.8
20260906035013 72 70 0.0 0.0 0.00 0.18 0.18 99 1014.9
20260906034512 72 73 0.0 0.0 0.00 0.18 0.18 99 1015.0
20260906034007 72 62 0.0 0.0 0.00 0.18 0.18 99 1015.1
20260906033501 72 41 0.0 0.0 0.00 0.18 0.18 99 1015.2
20260906032957 72 17 0.0 0.0 0.00 0.18 0.18 99 1014.9
20260906032455 73 294 0.0 0.0 0.00 0.18 0.18 99 1015.1
20260906031954 73 57 0.0 0.0 0.00 0.18 0.18 99 1015.2
20260906031450 73 68 0.0 0.0 0.00 0.18 0.18 99 1015.2
20260906030945 73 73 0.0 0.0 0.00 0.18 0.18 99 1015.4
20260906030439 73 65 0.0 0.0 0.00 0.18 0.18 99 1015.2
20260906025934 73 35 0.0 0.0 0.00 0.18 0.18 99 1015.8
20260906025433 73 109 0.0 0.0 0.00 0.18 0.18 99 1015.9
20260906024932 73 54 0.0 0.0 0.00 0.18 0.18 99 1015.7
20260906024433 73 27 0.0 0.0 0.00 0.18 0.18 99 1015.9
20260906023932 73 189 0.0 0.0 0.00 0.18 0.18 99 1016.1
20260906023430 73 255 0.0 0.0 0.00 0.18 0.18 99 1015.5
20260906022929 73 299 0.0 0.0 0.00 0.18 0.18 99 1016.1
20260906022425 73 249 0.0 0.0 0.00 0.18 0.18 99 1016.1
20260906021920 73 66 0.0 0.0 0.00 0.18 0.18 99 1016.0
20260906021415 73 227 0.0 0.0 0.00 0.18 0.18 99 1016.1
20260906020914 73 230 0.0 0.0 0.00 0.18 0.18 99 1015.9
20260906020409 73 91 0.0 0.0 0.00 0.18 0.18 99 1015.7
20260906015903 73 162 0.0 0.0 0.00 0.18 0.18 99 1015.7
20260906015403 73 120 0.0 0.0 0.00 0.18 0.18 99 1016.2
20260906014903 74 136 0.0 0.0 0.00 0.18 0.18 99 1015.9
20260906014403 73 178 0.0 0.0 0.00 0.18 0.18 99 1016.0
20260906013859 74 121 0.0 0.0 0.00 0.18 0.18 99 1015.8
20260906013354 73 65 0.0 0.0 0.00 0.18 0.18 99 1015.9
20260906012849 73 108 0.0 0.0 0.00 0.18 0.18 99 1015.6
20260906012344 74 109 0.0 0.0 0.00 0.18 0.18 99 1015.6
20260906011844 74 84 0.0 0.0 0.00 0.18 0.18 99 1015.3
20260906011339 73 104 0.0 0.0 0.00 0.18 0.18 99 1015.4
20260906010835 73 75 0.0 0.0 0.00 0.18 0.18 99 1015.7
20260906010331 74 80 0.0 0.0 0.00 0.18 0.18 99 1015.5
20260906005826 73 234 0.0 0.0 0.00 0.18 0.18 99 1015.1
20260906005325 73 195 0.0 0.0 0.00 0.18 0.18 99 1014.8
20260906004824 74 66 0.0 0.0 0.00 0.18 0.18 99 1014.9
20260906004324 74 242 0.0 0.0 0.00 0.18 0.18 99 1014.7
20260906003819 74 327 0.0 0.0 0.00 0.18 0.18 98 1014.6
20260906003315 74 192 0.0 0.0 0.00 0.18 0.18 98 1014.2
20260906002810 74 7 0.0 0.0 0.00 0.18 0.18 97 1014.4
20260906002309 74 337 0.0 0.0 0.00 0.18 0.18 97 1014.3
20260906001805 74 219 0.0 5.0 0.00 0.18 0.18 96 1014.6
20260906001300 75 112 0.0 0.0 1.06 0.18 0.18 95 1014.8
20260906000756 76 69 0.0 3.0 0.85 0.14 0.14 90 1014.8
20260906000256 78 57 0.0 3.0 0.00 0.00 0.00 85 1015.0
20260905235750 78 38 0.0 3.0 0.00 0.00 0.00 83 1015.0
20260905235250 79 71 3.0 7.0 0.00 0.00 0.00 82 1015.3
20260905234746 80 36 0.0 7.0 0.00 0.00 0.00 80 1015.5
20260905234241 83 331 1.0 10.0 0.00 0.00 0.00 74 1015.1
20260905233736 87 96 0.0 7.0 0.00 0.00 0.00 69 1014.8
20260905233235 87 80 0.0 3.0 0.00 0.00 0.00 73 1014.4
20260905232730 88 163 0.0 0.0 0.00 0.00 0.00 74 1013.6
20260905232226 88 218 0.0 0.0 0.00 0.00 0.00 73 1013.5
20260905231721 88 204 0.0 0.0 0.00 0.00 0.00 74 1013.5
20260905231217 88 189 0.0 0.0 0.00 0.00 0.00 73 1013.6
20260905230713 88 218 0.0 0.0 0.00 0.00 0.00 74 1013.8
20260905230210 88 196 0.0 0.0 0.00 0.00 0.00 73 1013.6
20260905225710 89 167 0.0 0.0 0.00 0.00 0.00 74 1013.6
20260905225206 89 209 0.0 0.0 0.00 0.00 0.00 74 1013.6
20260905224705 89 190 0.0 0.0 0.00 0.00 0.00 73 1013.7
20260905224200 89 158 0.0 3.0 0.00 0.00 0.00 72 1013.8
20260905223656 90 203 0.0 3.0 0.00 0.00 0.00 73 1013.5
20260905223153 90 203 0.0 0.0 0.00 0.00 0.00 73 1013.6
20260905222648 90 216 0.0 3.0 0.00 0.00 0.00 72 1013.7
20260905222142 90 169 0.0 3.0 0.00 0.00 0.00 72 1013.5
20260905221638 90 236 0.0 0.0 0.00 0.00 0.00 71 1013.4
20260905221135 90 202 0.0 0.0 0.00 0.00 0.00 71 1013.5
20260905220630 90 231 0.0 0.0 0.00 0.00 0.00 72 1013.5
20260905220126 90 177 0.0 5.0 0.00 0.00 0.00 71 1013.4
20260905215626 91 216 0.0 3.0 0.00 0.00 0.00 69 1013.4
20260905215121 91 145 0.0 0.0 0.00 0.00 0.00 69 1013.2
20260905214618 92 174 0.0 0.0 0.00 0.00 0.00 67 1013.2
20260905214117 92 159 0.0 5.0 0.00 0.00 0.00 67 1013.1
20260905213613 92 199 0.0 3.0 0.00 0.00 0.00 66 1013.3
20260905213108 92 258 0.0 5.0 0.00 0.00 0.00 68 1013.2
20260905212609 92 212 0.0 5.0 0.00 0.00 0.00 70 1013.1
20260905212108 92 214 2.0 7.0 0.00 0.00 0.00 69 1013.3
20260905211603 92 214 0.0 3.0 0.00 0.00 0.00 68 1013.2
20260905211059 93 190 3.0 5.0 0.00 0.00 0.00 66 1013.2
20260905210554 94 218 0.0 0.0 0.00 0.00 0.00 61 1013.3
20260905210049 95 195 0.0 0.0 0.00 0.00 0.00 55 1013.1
20260905205549 95 156 0.0 0.0 0.00 0.00 0.00 55 1012.9
20260905205048 95 135 0.0 0.0 0.00 0.00 0.00 53 1013.2
20260905204543 95 179 0.0 0.0 0.00 0.00 0.00 54 1013.5
20260905204038 94 112 0.0 0.0 0.00 0.00 0.00 56 1013.3
20260905203538 94 67 0.0 0.0 0.00 0.00 0.00 56 1013.6
20260905203033 93 170 0.0 0.0 0.00 0.00 0.00 56 1013.6
20260905202528 94 168 0.0 0.0 0.00 0.00 0.00 56 1013.6
20260905202024 95 151 0.0 0.0 0.00 0.00 0.00 53 1013.5
20260905201519 95 174 0.0 0.0 0.00 0.00 0.00 54 1013.7
20260905201018 95 159 0.0 0.0 0.00 0.00 0.00 52 1013.7
20260905200514 95 159 0.0 0.0 0.00 0.00 0.00 53 1014.2
20260905200009 96 149 0.0 0.0 0.00 0.00 0.00 52 1014.2
20260905195508 97 148 0.0 0.0 0.00 0.00 0.00 52 1014.4
20260905195004 97 148 0.0 0.0 0.00 0.00 0.00 54 1014.3
20260905194458 97 145 0.0 0.0 0.00 0.00 0.00 52 1014.3
20260905193958 97 127 0.0 0.0 0.00 0.00 0.00 52 1014.4
20260905193458 97 126 0.0 0.0 0.00 0.00 0.00 51 1014.5
20260905192954 98 26 0.0 0.0 0.00 0.00 0.00 50 1014.5
20260905192449 97 126 0.0 0.0 0.00 0.00 0.00 51 1014.6
20260905191945 97 183 0.0 0.0 0.00 0.00 0.00 50 1014.6
20260905191443 97 156 0.0 0.0 0.00 0.00 0.00 51 1014.6
20260905190943 97 145 0.0 0.0 0.00 0.00 0.00 52 1014.6
20260905190441 96 137 0.0 0.0 0.00 0.00 0.00 52 1014.6
20260905185940 97 203 0.0 0.0 0.00 0.00 0.00 51 1014.8
20260905185435 97 162 0.0 0.0 0.00 0.00 0.00 50 1014.8
20260905184933 97 130 0.0 0.0 0.00 0.00 0.00 49 1014.8
20260905184428 98 167 0.0 0.0 0.00 0.00 0.00 53 1014.8
20260905183927 98 181 0.0 0.0 0.00 0.00 0.00 53 1014.8
20260905183422 96 221 0.0 0.0 0.00 0.00 0.00 52 1015.1
20260905182917 97 42 0.0 0.0 0.00 0.00 0.00 49 1015.1
20260905182416 97 137 0.0 0.0 0.00 0.00 0.00 51 1015.0
20260905181912 98 180 0.0 0.0 0.00 0.00 0.00 52 1015.2
20260905181412 99 142 0.0 0.0 0.00 0.00 0.00 50 1015.2
20260905180911 100 149 0.0 0.0 0.00 0.00 0.00 49 1015.1
20260905180406 98 128 0.0 0.0 0.00 0.00 0.00 49 1015.1
20260905175901 99 258 0.0 5.0 0.00 0.00 0.00 49 1015.4
20260905175401 100 155 0.0 3.0 0.00 0.00 0.00 48 1015.5
20260905174901 100 100 0.0 0.0 0.00 0.00 0.00 47 1015.4
20260905174357 100 13 0.0 7.0 0.00 0.00 0.00 47 1015.3
20260905173852 100 73 0.0 0.0 0.00 0.00 0.00 49 1015.5
20260905173348 99 126 0.0 0.0 0.00 0.00 0.00 48 1015.6
20260905172843 99 87 0.0 0.0 0.00 0.00 0.00 50 1015.7
20260905172341 97 174 0.0 0.0 0.00 0.00 0.00 52 1015.8
20260905171837 96 108 0.0 3.0 0.00 0.00 0.00 53 1016.0
20260905171334 95 105 0.0 5.0 0.00 0.00 0.00 53 1015.8
20260905170830 96 31 0.0 0.0 0.00 0.00 0.00 52 1016.1
20260905170326 97 182 0.0 0.0 0.00 0.00 0.00 55 1015.9
20260905165825 95 260 0.0 0.0 0.00 0.00 0.00 53 1016.3
20260905165321 98 211 0.0 0.0 0.00 0.00 0.00 52 1016.3
20260905164820 97 77 0.0 0.0 0.00 0.00 0.00 53 1016.2
20260905164315 97 298 0.0 3.0 0.00 0.00 0.00 52 1016.2
20260905163811 98 140 0.0 0.0 0.00 0.00 0.00 54 1016.4
20260905163308 98 145 0.0 0.0 0.00 0.00 0.00 54 1016.5
20260905162803 98 188 0.0 0.0 0.00 0.00 0.00 53 1016.4
20260905162305 98 62 0.0 0.0 0.00 0.00 0.00 55 1016.7
20260905161757 95 313 0.0 0.0 0.00 0.00 0.00 56 1016.6
20260905161256 96 65 0.0 5.0 0.00 0.00 0.00 53 1016.7
20260905160755 97 150 0.0 5.0 0.00 0.00 0.00 54 1016.8
20260905160255 97 177 0.0 0.0 0.00 0.00 0.00 53 1016.8
20260905155750 97 125 0.0 0.0 0.00 0.00 0.00 55 1016.7
20260905155248 97 174 0.0 5.0 0.00 0.00 0.00 54 1016.8
20260905154743 98 123 0.0 0.0 0.00 0.00 0.00 52 1016.7
20260905154239 97 145 0.0 0.0 0.00 0.00 0.00 53 1016.6
20260905153734 96 159 0.0 0.0 0.00 0.00 0.00 53 1016.9
20260905153230 96 16 0.0 3.0 0.00 0.00 0.00 53 1016.9
20260905152725 96 241 0.0 0.0 0.00 0.00 0.00 55 1017.0
20260905152225 97 140 0.0 0.0 0.00 0.00 0.00 53 1016.9
20260905151724 96 96 0.0 0.0 0.00 0.00 0.00 54 1016.9
20260905151221 95 74 0.0 0.0 0.00 0.00 0.00 56 1016.9
20260905150715 95 54 0.0 0.0 0.00 0.00 0.00 54 1016.9
20260905150214 96 182 0.0 0.0 0.00 0.00 0.00 55 1017.0
20260905145712 95 107 0.0 0.0 0.00 0.00 0.00 56 1016.9
20260905145207 96 134 0.0 0.0 0.00 0.00 0.00 59 1017.0
20260905144706 95 156 0.0 0.0 0.00 0.00 0.00 57 1017.2
20260905144206 95 217 0.0 0.0 0.00 0.00 0.00 57 1017.2
20260905143706 94 132 0.0 0.0 0.00 0.00 0.00 59 1017.2
20260905143206 94 115 0.0 0.0 0.00 0.00 0.00 60 1017.0
20260905142704 94 90 0.0 0.0 0.00 0.00 0.00 59 1017.3
20260905142159 91 156 0.0 0.0 0.00 0.00 0.00 67 1017.0
20260905141654 93 55 0.0 3.0 0.00 0.00 0.00 61 1017.2
20260905141150 94 138 0.0 0.0 0.00 0.00 0.00 63 1017.3
20260905140645 93 129 0.0 0.0 0.00 0.00 0.00 63 1017.2
20260905140144 94 152 0.0 0.0 0.00 0.00 0.00 62 1017.2
20260905135640 93 134 0.0 0.0 0.00 0.00 0.00 64 1017.5
20260905135135 93 151 0.0 0.0 0.00 0.00 0.00 65 1017.3
20260905134630 91 174 0.0 0.0 0.00 0.00 0.00 67 1017.5
20260905134128 93 132 0.0 0.0 0.00 0.00 0.00 64 1017.4
20260905133624 93 139 0.0 0.0 0.00 0.00 0.00 65 1017.4
20260905133124 92 140 0.0 0.0 0.00 0.00 0.00 68 1017.5
20260905132624 90 130 0.0 0.0 0.00 0.00 0.00 70 1017.3
20260905132119 89 127 0.0 0.0 0.00 0.00 0.00 72 1017.4
20260905131614 89 197 0.0 0.0 0.00 0.00 0.00 72 1017.6
20260905131109 86 141 0.0 0.0 0.00 0.00 0.00 77 1017.5
20260905130609 84 185 0.0 0.0 0.00 0.00 0.00 78 1017.5
20260905125603 86 115 0.0 0.0 0.00 0.00 0.00 79 1017.4
20260905125058 84 140 0.0 0.0 0.00 0.00 0.00 81 1017.4
20260905124555 83 136 0.0 0.0 0.00 0.00 0.00 83 1017.4
20260905124051 82 101 0.0 0.0 0.00 0.00 0.00 83 1017.4
20260905123546 82 135 0.0 0.0 0.00 0.00 0.00 87 1017.4
20260905123043 80 132 0.0 0.0 0.00 0.00 0.00 90 1017.7
20260905122542 78 94 0.0 0.0 0.00 0.00 0.00 94 1017.4
20260905122037 76 78 0.0 0.0 0.00 0.00 0.00 97 1017.5
20260905121532 76 80 0.0 0.0 0.00 0.00 0.00 98 1017.3
20260905121027 75 139 0.0 0.0 0.00 0.00 0.00 99 1017.4
20260905120526 74 120 0.0 0.0 0.00 0.00 0.00 99 1017.2